Location: Schommer Observatory
(40.5200°N, 74.4500°W)
Time: 03:08:25
(UTC-04:00)

Vanguard 3 - Visible Passes

Search period start: 22 July 2018 00:00
Search period end: 01 August 2018 00:00
Orbit: 508 x 3264 km, 33.3° (Epoch: 21 July)

Date Brightness Start Highest point End Pass type
(mag) Time Alt. Az. Time Alt. Az. Time Alt. Az.
22 Jul 8.6 21:06:20 10° W 21:17:24 50° SSW 21:23:07 13° SE visible
22 Jul 9.1 23:23:17 10° W 23:27:41 18° SW 23:27:41 18° SW visible
23 Jul 8.6 22:06:17 10° W 22:15:03 34° SSW 22:17:54 25° SSE visible
24 Jul 8.9 20:49:15 10° W 21:01:18 50° SSW 21:08:06 10° SE visible
24 Jul 9.2 23:06:53 10° W 23:12:07 18° SW 23:12:40 18° SW visible
25 Jul 8.9 21:49:24 10° W 21:58:56 33° SSW 22:02:53 20° SSE visible
26 Jul 9.1 20:32:04 10° W 20:45:06 49° SSW 20:52:33 10° SE visible
26 Jul 9.4 22:50:26 10° W 22:55:55 17° SW 22:57:40 16° SSW visible
27 Jul 9.2 21:32:26 10° W 21:42:42 32° SW 21:47:55 15° SSE visible
28 Jul 9.6 22:33:57 10° W 22:39:36 16° SW 22:42:44 13° SSW visible
29 Jul 9.6 21:15:24 10° W 21:26:20 31° SW 21:32:59 11° SSE visible
30 Jul 9.9 22:17:28 10° W 22:23:11 15° SW 22:27:38 10° SSW visible
31 Jul 9.8 20:58:19 10° W 21:09:50 30° SW 21:17:19 10° SSE visible
